Find Kosmos-2209

NORAD ID: 22112 Int'l Des: 1992-059 Owner: PVO Country: RU operational
HEOCIRCULARGSO

現在のビュー

3D地球を読み込み中...

About Kosmos-2209

Kosmos-2209 (NORAD 22112) is a satellite launched Sep 10, 1992 by PVO of RU. It operates in HEO, CIRCULAR, GSO orbit with a mass of 1250.00 kg.

次回通過

Passes for default location (London). Set your location on the main map for personalized predictions.

高度履歴

Loading altitude history...

軌道要素

1 22112U 92059A 26194.83467897 -.00000309 00000-0 00000+0 0 9999
2 22112 13.5666 342.4433 0011236 343.7521 208.3025 1.00194856123884
Epoch: Jul 13, 2026 • Age: 9 hours

現在のステータス

高度 35762.1 km
遠地点 / 近地点 N/A
速度 3.08 km/s
衛星直下点 -6.10°S, 57.18°W
打ち上げ日 Sep 10, 1992
運用期間 33.8 years
タイプ other

技術仕様

分類 Payload
質量 1250.00 kg
乾燥質量 1150.00 kg
総質量 1250.00 kg
長さ 4.00 m
直径 2.00 m
スパン 5.00 m
形状 Cyl + 2 Pan
製造者 NPOL/KOMET
バスタイプ Oko
フェーズステータス In Orbit
所有者/国 PVO/RU

Most Searched